Location: Newark
(52.5667°N, 8.8000°W)
Time: 11:33:16
(UTC+00:00)

N. Korean satellite - Pass Details

Date: 25 January 2020
Orbit: 456 x 505 km, 97.2° (Epoch: 23 February)

Event Time Altitude Azimuth Distance (km) Brightness Sun altitude
Rises 07:14:40 0° 6° (N) 2,531 10.1 -11.0°
Reaches altitude 10° 07:16:49 10° 358° (N) 1,657 9.1 -10.7°
Maximum altitude 07:20:05 35° 291° (WNW) 801 7.1 -10.2°
Drops below altitude 10° 07:23:22 10° 225° (SW) 1,670 9.0 -9.8°
Sets 07:25:32 0° 216° (SW) 2,555 10.0 -9.4°
